Simultaneous Nadir Overpasses (SNOs) Predictions

Prediction of SNOs near US between AQUA and NPP Satellite Orbit:

Table of predicted SNOs near US for the next 10.0 days since TLE Epoch: 5/29/2015
Index Date (AQUA) Time (AQUA) AQUA Lat,Lon Date (NPP) Time (NPP) NPP Lat,Lon Distance(km) Time Diff (sec)
1 05/30/2015 06:31:03 46.54, -65.03 05/30/2015 06:35:09 46.92, -66.97 153.90 246
2 05/30/2015 08:08:59 49.93, -88.40 05/30/2015 08:15:38 50.43, -90.85 182.69 399
3 06/01/2015 19:07:11 49.99, -92.59 06/01/2015 19:05:55 49.65, -94.35 132.36 76
4 06/01/2015 20:44:47 45.41,-115.52 06/01/2015 20:46:04 44.98,-117.82 186.79 77
5 06/04/2015 06:57:01 20.00, -77.24 06/04/2015 06:49:11 19.90, -76.71 56.69 470
6 06/04/2015 08:34:02 26.76,-100.34 06/04/2015 08:28:44 26.75,-100.35 1.29 318
7 06/04/2015 10:09:16 39.90,-121.41 06/04/2015 10:06:27 39.99,-121.85 38.61 169
8 06/07/2015 07:19:38 49.89, -76.10 06/07/2015 07:24:53 50.29, -78.24 159.49 315
9 06/07/2015 08:58:31 49.89,-100.82 06/07/2015 09:06:20 50.45,-103.54 203.98 469




NCC Satellite Simultaneous Nadir Overpasses (SNOs) Prediction Service
